User: anonymous   Login
Location: Mentone
(34.5413°N, 85.5351°W)
Time: 13:30:23
(UTC-05:00)
Language:

Okean O Rocket - Orbit

View from above orbital plane
View from above orbital plane
View from above satellite
View from above satellite

Ground track
Ground track

The orbit data is extracted from the following two-line orbital elements,

1 25861U 99039B   15150.50441475  .00000173  00000-0  31137-4 0  9994
2 25861 097.9995 110.8585 0015182 340.0373 135.1049 14.78134528855168
Epoch (UTC): 30 May 2015 12:06:21
Eccentricity: 0.0015182
inclination: 97.9995°
perigee height: 624 km
apogee height: 646 km
right ascension of ascending node: 110.8585°
argument of perigee: 340.0373°
revolutions per day: 14.78134528
mean anomaly at epoch: 135.1049°
orbit number at epoch: 85516

The dashed part of the orbit path shows where the satellite is in the earth's shadow,  

DLR